Location: �clusier
(49.9361°N, 2.7869°E)
Time: 08:37:07
(UTC+00:00)

Cosmos 968 Rocket - Pass Details

Date: 16 June 2021
Orbit: 740 x 771 km, 74.0° (Epoch: 02 August)

Event Time Altitude Azimuth Distance (km) Brightness Sun altitude
Rises 22:22:51 0° 335° (NNW) 3,190 8.7 -14.2°
Reaches altitude 10° 22:25:12 10° 334° (NNW) 2,263 7.4 -14.3°
Maximum altitude 22:30:19 77° 249° (WSW) 767 3.5 -14.6°
Enters shadow 22:33:32 23° 166° (SSE) 1,543 4.4 -14.8°
